FW1458 Weather Reports


time (UTC)temp
C
wind
direction
speed
KPH
gust
KPH
rain 1hr
cm
rain 24hr
cm
rain mn
cm
humidity
%
barometer
mb
20260510164556 17 304 4.8 19.3 0.00 0.00 0.00 72 1018.8
20260510163046 17 5 9.7 24.1 0.00 0.00 0.00 72 1018.2
20260510161547 17 360 9.7 20.9 0.00 0.00 0.00 75 1017.4
20260510160049 17 329 12.9 22.5 0.00 0.00 0.00 76 1017.2
20260510154537 17 349 12.9 20.9 0.00 0.00 0.00 77 1016.9
20260510153035 17 340 9.7 24.1 0.00 0.00 0.00 79 1016.9
20260510151531 17 12 9.7 19.3 0.00 0.00 0.00 80 1016.7
20260510150031 16 5 9.7 22.5 0.00 0.00 0.00 81 1016.0
20260510144529 16 360 11.3 22.5 0.00 0.00 0.00 81 1015.8
20260510143038 16 347 6.4 14.5 0.00 0.00 0.00 80 1016.1
20260510141529 17 34 9.7 16.1 0.00 0.00 0.00 79 1016.3
20260510140028 17 328 6.4 12.9 0.00 0.00 0.00 80 1016.3
20260510134526 17 338 4.8 9.7 0.00 0.00 0.00 82 1016.4
20260510133025 17 313 4.8 12.9 0.00 0.00 0.00 83 1016.9
20260510131521 17 237 1.6 4.8 0.00 0.00 0.00 83 1016.3
20260510130027 17 194 0.0 0.0 0.00 0.00 0.00 83 1015.7
20260510124522 17 194 0.0 0.0 0.00 0.00 0.00 82 1015.5
20260510123015 17 141 0.0 3.2 0.00 0.00 0.00 82 1014.9
20260510121514 16 141 0.0 1.6 0.00 0.00 0.00 81 1014.5
20260510120009 16 90 0.0 3.2 0.00 0.00 0.00 81 1014.0
20260510114513 16 43 0.0 0.0 0.00 0.00 0.00 81 1013.7
20260510113012 16 43 0.0 3.2 0.00 0.00 0.00 80 1013.6
20260510111503 17 15 0.0 3.2 0.00 0.00 0.00 80 1013.4
20260510110003 17 41 0.0 4.8 0.00 0.03 0.00 79 1013.2
20260510104501 17 64 0.0 3.2 0.00 0.03 0.00 79 1012.4
20260510103104 17 68 0.0 3.2 0.00 0.03 0.00 78 1012.8
20260510101559 17 61 0.0 0.0 0.00 0.03 0.00 78 1012.8
20260510100100 17 61 0.0 3.2 0.00 0.03 0.00 79 1012.5
20260510100001 17 61 0.0 3.2 0.00 0.03 0.00 79 1012.4
20260510094557 17 39 1.6 4.8 0.00 0.03 0.00 78 1012.5
20260510093056 17 98 0.0 3.2 0.00 0.03 0.00 77 1012.8
20260510091558 18 71 0.0 0.0 0.00 0.03 0.00 75 1012.3
20260510084558 19 21 0.0 0.0 0.00 0.03 0.00 72 1011.6
20260510083048 19 21 0.0 4.8 0.00 0.03 0.00 72 1010.9
20260510081548 20 69 0.0 3.2 0.00 0.03 0.00 68 1010.8
20260510080051 20 302 0.0 3.2 0.00 0.03 0.00 68 1010.8
20260510074546 20 119 0.0 3.2 0.00 0.03 0.00 66 1010.7
20260510073045 20 39 0.0 12.9 0.00 0.03 0.00 67 1010.5
20260510071543 20 119 1.6 4.8 0.00 0.03 0.00 71 1011.1
20260510070049 20 285 3.2 9.7 0.00 0.03 0.00 72 1011.2
20260510064558 19 155 6.4 16.1 0.00 0.05 0.00 74 1009.8
20260510063044 18 147 3.2 8.0 0.00 0.05 0.00 79 1011.2
20260510061545 19 175 1.6 3.2 0.00 0.05 0.00 78 1012.0
20260510060037 19 336 1.6 3.2 0.00 0.05 0.00 76 1012.6
20260510054528 20 336 0.0 0.0 0.00 0.05 0.00 74 1012.9
20260510053024 20 336 0.0 0.0 0.00 0.05 0.00 72 1013.1
20260510051523 20 336 0.0 3.2 0.00 0.05 0.00 71 1013.0
20260510050020 20 349 1.6 6.4 0.00 0.05 0.00 71 1012.9
20260510044526 20 355 3.2 4.8 0.00 0.05 0.05 71 1012.9
20260510043018 19 20 1.6 4.8 0.00 0.05 0.05 74 1012.5
20260510041515 20 99 0.0 1.6 0.00 0.05 0.05 75 1011.7
20260510040015 20 99 0.0 0.0 0.00 0.05 0.05 75 1011.3
20260510034513 20 99 0.0 0.0 0.00 0.08 0.05 73 1011.2
20260510033013 20 99 0.0 0.0 0.00 0.08 0.05 71 1011.4
20260510031512 20 111 0.0 3.2 0.00 0.08 0.05 71 1011.4
20260510030011 20 120 0.0 1.6 0.00 0.08 0.05 69 1011.5
20260510024510 21 120 0.0 0.0 0.00 0.08 0.05 65 1011.1
20260510023011 21 120 0.0 0.0 0.00 0.08 0.05 63 1010.6
20260510021513 22 120 0.0 3.2 0.00 0.08 0.05 65 1010.0
20260510020009 23 120 0.0 0.0 0.00 0.08 0.05 58 1009.7
20260510014515 23 120 0.0 1.6 0.00 0.08 0.05 57 1009.3
20260510013015 24 120 0.0 0.0 0.00 0.08 0.05 56 1008.9
20260510011508 25 120 0.0 3.2 0.00 0.08 0.05 51 1008.6
20260510010008 25 136 0.0 4.8 0.00 0.08 0.05 50 1008.6
20260510004507 26 168 1.6 3.2 0.00 0.20 0.05 48 1008.3
20260510003007 26 155 1.6 4.8 0.00 0.20 0.05 47 1008.3
20260510001507 26 169 1.6 6.4 0.00 0.20 0.05 43 1008.2
20260510000005 27 188 3.2 9.7 0.00 0.20 0.05 39 1008.3
20260509234517 27 138 3.2 12.9 0.00 1.85 0.05 36 1008.3
20260509233008 27 109 3.2 11.3 0.00 1.85 0.05 36 1008.5
20260509231501 28 178 3.2 11.3 0.00 1.85 0.05 35 1008.5
20260509230001 28 126 3.2 9.7 0.00 2.67 0.05 38 1008.5
20260509224604 28 164 4.8 9.7 0.00 2.67 0.05 34 1008.6
20260509223058 28 164 3.2 11.3 0.00 2.67 0.05 35 1008.7
20260509221558 28 174 4.8 11.3 0.00 2.67 0.05 35 1009.0
20260509220054 29 198 4.8 11.3 0.00 2.67 0.05 37 1009.2
20260509214552 29 202 0.0 11.3 0.00 2.67 0.05 34 1009.2
20260509213050 29 177 3.2 9.7 0.00 2.67 0.05 34 1009.1
20260509211600 29 146 3.2 11.3 0.00 2.67 0.05 33 1009.3
20260509210058 29 253 4.8 11.3 0.00 2.67 0.05 35 1009.6
20260509204544 29 153 3.2 11.3 0.00 2.67 0.05 37 1009.7
20260509203046 29 169 4.8 9.7 0.00 2.67 0.05 39 1009.7
20260509201553 29 144 6.4 11.3 0.00 2.67 0.05 35 1009.9
20260509200039 28 194 1.6 9.7 0.00 2.67 0.05 38 1010.1
20260509194537 28 175 6.4 14.5 0.00 2.67 0.05 39 1010.3
20260509193039 28 165 4.8 11.3 0.00 2.67 0.05 38 1010.3
20260509191539 28 154 3.2 11.3 0.00 2.67 0.05 40 1010.4
20260509190035 28 176 1.6 8.0 0.00 2.67 0.05 47 1010.3
20260509184629 28 172 1.6 6.4 0.00 2.67 0.05 46 1010.5
20260509183033 27 206 1.6 8.0 0.00 2.67 0.05 52 1010.6
20260509181524 27 154 1.6 6.4 0.00 2.67 0.05 58 1010.9
20260509180023 27 112 1.6 11.3 0.00 2.67 0.05 61 1011.0
20260509174520 26 162 3.2 12.9 0.00 2.67 0.05 63 1011.1
20260509173024 26 148 3.2 12.9 0.00 2.67 0.05 69 1011.2
20260509171521 25 34 1.6 9.7 0.00 2.67 0.05 74 1011.3
20260509170008 24 121 1.6 6.4 0.00 2.67 0.05 83 1011.4